RH
36 33 32 39 43 46 54 62 68 70 66 64 61 59 58 56 53 50 49 44 39 42 41 39 42 47 48 51 61 66 69 70 70 73 75 75 74 75 75 75 75 76 76
33 46 42 46 49 49 56 64 69 72 69 67 64 61 58 55 52 50 46 43 39 41 41 41 42 43 45 47 46 48 52 56 62 61 71 92 80 74 74 70 70 71 70
40 51 51 58 56 55 59 66 70 72 72 68 65 61 58 55 53 52 49 45 40 40 43 42 42 46 47 49 51 50 50 50 54 58 59 65 80 77 71 68 65 64 63
35 49 55 64 66 61 60 65 70 74 72 68 65 62 59 58 56 52 49 45 42 39 43 44 44 46 48 47 49 51 51 51 49 51 56 56 54 68 87 71 64 61 60
44 46 60 59 64 64 63 65 70 75 74 69 67 64 61 56 53 54 53 48 49 43 42 44 45 46 48 45 44 48 50 52 54 54 52 54 51 48 58 86 68 62 65
41 50 50 53 64 65 67 67 71 77 73 71 72 67 61 58 54 54 55 53 53 51 47 47 47 48 47 48 49 50 49 51 52 53 54 56 57 55 53 58 59 60 65
50 53 61 65 65 70 72 70 73 79 75 76 75 70 63 60 53 53 55 55 55 55 50 50 50 50 52 51 48 50 52 55 54 54 53 57 60 59 58 57 61 59 58
66 62 58 62 63 71 73 74 74 80 77 79 77 72 68 66 58 54 55 54 53 52 52 54 54 54 52 52 54 52 54 56 55 53 56 58 59 60 63 64 65 72 63
71 71 71 64 60 67 73 74 73 78 80 81 81 80 78 80 70 62 57 54 54 57 57 58 58 56 53 53 57 56 51 57 56 57 54 56 58 60 63 64 67 74 79
76 77 72 67 62 62 67 71 70 74 78 80 83 80 83 82 80 75 67 61 62 62 60 58 56 55 56 57 56 58 56 56 56 58 57 56 58 59 59 63 66 68 73
79 80 78 65 62 64 65 66 66 70 73 76 78 80 82 83 77 75 70 63 62 63 59 56 55 56 58 57 59 60 59 59 60 58 59 58 58 58 58 59 60 62 64
82 80 79 91 99 100 96 91 77 67 62 59 57 59 61 62 64 63 62 60 59 56 56 55 57 59 59 58 60 65 67 70 74 76 76 70 64 62 61 60 61 62 63
91 91 90 94 96 99 100 100 99 89 72 60 58 58 60 60 64 64 62 61 59 59 59 60 61 62 64 73 85 90 90 89 87 83 74 70 66 67 76 78 70 69 66
92 89 90 93 96 98 99 98 97 99 100 95 93 93 91 86 80 78 84 90 92 92 92 93 93 94 96 96 95 95 96 96 95 92 90 88 86 81 74 71 68 66 65
91 93 94 95 96 97 97 96 97 97 97 97 97 97 98 98 99 99 99 98 98 98 98 98 98 98 98 98 98 98 96 94 93 90 86 82 79 75 71 67 64 65 67
93 94 94 94 95 96 97 97 97 96 96 97 96 97 96 96 97 97 98 98 98 99 98 98 98 97 98 97 97 97 97 97 90 84 79 77 80 82 82 84 84 83 72
93 93 94 95 96 97 96 96 96 96 95 95 96 96 96 96 95 95 96 96 96 96 96 96 97 97 97 97 97 98 98 98 97 92 90 88 87 84 83 85 83 80 86
93 92 95 96 96 95 94 95 95 95 96 95 95 95 95 95 95 95 95 95 95 95 94 93 93 94 93 92 91 89 89 86 83 83 83 86 88 85 85 85 82 78 74
95 97 97 98 97 96 94 95 95 95 95 95 95 95 95 95 95 95 95 94 78 53 50 53 57 60 56 61 67 74 79 77 74 72 69 66 74 77 73 74 77 78 78
96 97 95 95 94 91 95 92 91 92 95 95 95 84 51 48 51 48 43 40 41 45 45 46 44 46 49 52 56 62 69 74 70 65 61 61 62 65 65 65 64 69 73
77 64 60 66 68 67 75 82 58 45 44 69 71 45 40 41 44 42 39 38 41 44 45 46 45 44 45 45 54 60 65 68 62 60 57 55 55 55 58 60 62 64 68
57 55 57 58 60 64 62 66 46 37 39 44 44 43 42 42 40 42 42 42 43 46 48 48 48 50 51 52 54 58 62 65 67 66 64 61 59 57 57 57 58 59 60
59 59 59 61 63 55 45 42 41 46 48 50 50 50 49 47 45 45 45 46 46 47 52 57 58 57 51 48 50 55 60 66 69 71 73 71 67 64 62 62 64 67 74
61 59 58 63 54 45 45 47 48 49 51 53 54 56 57 59 61 60 59 56 58 60 63 59 58 59 57 56 54 52 55 59 62 64 64 65 64 64 62 62 63 62 62
58 57 58 53 50 51 54 56 55 56 57 58 59 62 66 66 67 68 68 67 64 65 65 65 65 68 66 65 63 62 60 58 57 64 64 65 67 67 72 71 68 66 64
55 51 51 53 56 57 57 57 56 55 56 59 63 67 70 75 76 76 77 74 71 71 72 74 79 93 84 73 73 69 78 85 95 97 96 91 90 88 83 77 77 74 71
Wind_Speed
12 25 28 28 30 31 33 34 30 29 28 26 24 20 20 17 15 14 13 13 13 13 12 11 12 12 12 13 12 12 14 15 14 14 14 13 11 11 10 8 9 10 11
9 12 24 30 32 33 34 34 32 31 30 29 26 23 20 16 16 16 16 14 15 15 13 12 12 11 12 11 11 10 11 9 8 3 9 3 5 8 6 7 8 8 8
9 13 13 23 30 30 33 32 32 32 30 27 23 20 21 19 18 17 17 16 15 16 15 14 14 13 12 12 12 11 7 7 5 6 3 2 3 8 7 6 7 6 7
5 8 11 17 24 27 30 30 32 32 30 27 28 29 25 22 19 23 19 17 15 16 15 14 14 14 13 12 11 11 11 8 9 6 6 6 5 3 2 6 5 4 5
7 6 8 16 21 25 29 29 30 31 29 29 29 28 24 23 18 21 20 18 16 16 15 15 15 14 14 13 11 11 11 11 10 7 5 6 6 4 2 3 5 6 3
3 6 10 17 22 24 27 28 29 29 28 29 27 27 24 22 25 24 22 20 18 16 16 15 14 14 14 14 13 12 11 11 10 9 8 6 3 3 2 2 3 8 6
2 4 8 8 18 23 26 26 27 27 27 27 25 24 23 23 27 26 24 23 21 19 18 17 16 15 14 13 13 12 12 11 12 9 8 6 6 5 4 2 2 2 5
5 6 4 8 14 20 23 21 23 24 25 26 26 23 22 21 23 24 23 23 22 21 19 18 16 16 14 13 12 12 11 11 11 11 10 8 6 6 5 3 2 1 5
6 6 7 7 8 14 17 18 18 21 23 24 23 21 19 19 20 22 22 22 21 21 19 19 18 17 16 14 14 13 13 11 11 10 10 10 7 6 5 5 4 3 1
8 7 7 11 12 6 9 12 14 16 19 19 21 22 20 20 18 20 21 21 20 22 21 20 19 17 16 15 14 14 13 12 11 9 9 9 7 6 5 5 5 3 2
9 8 9 18 17 17 13 7 3 8 10 10 10 13 16 17 16 19 20 21 22 21 21 21 19 19 18 16 15 14 15 14 14 11 11 9 7 8 5 4 4 4 3
16 13 18 24 26 27 27 24 18 14 8 4 6 7 9 10 12 14 16 19 20 20 21 21 20 19 19 19 18 14 13 13 12 11 9 9 8 8 9 8 7 6 7
17 16 18 20 23 25 25 25 19 14 12 9 9 9 9 9 12 13 16 16 18 18 20 20 19 19 16 14 13 13 12 12 12 13 13 13 11 9 9 8 8 9 9
17 15 14 17 20 21 23 24 23 16 10 6 6 5 4 7 10 11 13 16 17 17 15 15 15 15 15 14 14 13 13 12 11 11 10 9 8 8 8 9 9 9 11
17 15 13 15 19 20 20 20 18 16 14 15 16 14 11 7 6 6 8 10 10 11 12 12 12 13 14 14 14 14 14 12 12 12 12 12 12 12 11 10 9 9 10
15 14 13 18 20 22 22 23 22 19 15 13 14 11 10 10 11 10 10 9 7 7 7 7 9 9 8 9 10 11 10 9 9 10 10 11 10 11 11 12 12 13 14
12 13 11 16 18 20 21 20 20 18 16 16 15 14 12 10 8 8 7 5 5 3 4 2 1 2 4 6 7 8 8 7 10 12 12 12 12 12 13 13 12 14 16
11 11 16 15 15 19 20 19 17 15 13 11 11 12 11 11 10 8 6 5 4 4 2 1 3 5 6 7 8 8 10 10 11 12 13 14 15 14 13 14 14 16 18
12 14 16 17 17 17 18 18 16 15 13 12 11 10 9 10 10 8 6 5 6 5 6 6 8 9 10 9 10 9 11 12 14 15 15 15 17 16 16 18 20 20 21
13 16 16 16 16 19 19 17 15 14 13 12 12 11 11 10 9 9 9 9 9 8 7 7 8 9 10 10 11 10 12 13 14 16 17 16 17 17 17 18 20 19 17
17 19 19 17 15 15 15 14 16 14 12 10 11 12 12 12 12 11 11 11 10 10 11 11 11 12 13 14 13 13 14 14 13 12 15 14 15 16 18 19 21 23 21
19 19 18 17 17 17 14 14 15 16 14 13 15 14 13 13 12 12 14 12 12 13 14 14 15 15 14 13 14 15 17 17 17 17 16 15 15 17 19 20 20 21 22
19 19 18 19 18 16 16 16 15 16 17 17 16 16 16 14 13 14 14 14 14 15 15 13 13 11 11 12 12 14 16 16 18 18 18 19 19 20 22 22 22 23 21
19 20 21 19 17 19 18 19 20 20 19 19 18 18 17 17 16 15 15 15 16 15 12 12 13 13 12 12 13 14 15 16 17 18 19 17 19 21 22 22 22 24 25
21 21 18 20 20 21 21 22 21 21 21 20 20 19 18 18 19 18 17 18 20 16 17 18 18 15 17 16 17 17 20 21 20 18 20 22 23 23 22 22 21 20 23
18 20 20 20 21 24 24 24 22 21 22 20 18 18 19 18 17 17 18 19 21 21 22 24 24 22 24 22 22 21 22 22 23 22 17 19 16 16 15 18 18 20 21
Wind_Direction
201 189 191 185 184 185 179 179 179 181 178 175 174 172 174 172 168 171 170 173 162 156 156 148 142 145 140 128 126 125 131 122 122 114 102 98 98 94 84 76 73 63 53
183 169 171 174 182 183 179 177 181 182 181 182 182 180 176 178 178 186 176 180 174 165 162 158 148 142 139 138 136 140 139 129 156 154 152 132 113 93 89 88 71 65 51
176 160 164 166 174 180 179 177 181 183 183 183 176 173 170 167 174 187 184 180 181 172 172 168 160 151 155 149 151 153 155 143 123 141 145 122 149 139 136 107 102 89 77
113 146 162 164 173 181 182 181 183 184 183 180 178 177 172 169 192 189 187 182 186 180 175 170 166 161 159 154 151 154 149 154 144 118 93 90 117 150 136 141 117 98 70
163 177 158 166 174 179 183 185 185 186 183 183 185 183 188 195 194 184 187 183 184 186 179 175 173 167 168 162 159 154 151 135 144 136 129 97 88 93 126 154 158 133 98
73 147 151 167 171 181 184 187 187 186 186 186 189 192 188 189 174 178 184 183 185 184 181 178 176 175 174 170 166 158 154 152 147 143 134 115 116 121 98 117 151 148 149
153 142 146 155 165 175 180 187 187 184 188 189 191 196 196 191 181 182 184 182 184 187 187 183 181 178 175 172 165 159 152 147 142 136 130 133 126 125 110 97 84 127 147
60 41 119 156 167 169 175 181 187 185 189 192 197 199 199 191 189 191 189 191 194 193 190 184 181 183 178 169 165 158 154 154 148 146 138 132 126 124 128 106 109 3 238
102 54 8 21 151 165 172 186 193 191 194 194 197 198 194 187 187 194 192 193 193 188 188 183 180 182 174 169 164 167 156 158 149 151 149 135 151 146 147 144 127 109 25
81 50 15 19 35 127 178 194 203 200 197 198 200 206 207 206 195 195 191 189 189 189 187 182 182 177 171 169 164 164 162 162 158 156 150 150 150 149 153 149 146 145 114
64 42 15 21 32 40 45 59 140 166 179 196 189 192 195 195 191 182 184 184 179 183 182 179 176 172 173 166 166 162 168 154 150 154 151 148 155 153 153 167 171 173 178
52 39 27 23 24 29 31 37 48 66 77 142 164 162 170 175 180 178 178 177 175 177 177 175 171 169 171 169 175 174 183 184 184 179 173 174 169 185 186 179 187 202 210
44 41 35 29 23 20 25 24 23 29 51 83 113 129 145 162 155 158 161 165 164 164 164 166 170 173 184 185 187 194 194 191 186 184 182 187 188 182 204 197 215 216 225
33 34 34 33 31 28 26 28 30 31 30 41 64 74 94 117 131 147 157 168 172 180 188 194 199 203 201 198 193 191 193 196 199 202 204 208 210 215 226 230 234 238 233
24 23 23 21 21 22 22 24 32 42 55 71 75 77 82 100 126 156 180 188 189 191 192 194 196 193 196 195 192 194 191 195 200 211 215 220 224 226 224 232 232 237 254
13 20 20 21 17 15 14 14 16 23 36 49 58 63 72 72 78 82 89 108 123 154 178 197 202 198 206 208 203 209 211 207 219 226 225 226 229 238 240 241 241 246 247
5 9 11 11 11 8 13 13 15 22 31 33 32 42 45 53 60 53 45 63 63 94 70 66 202 188 227 235 223 225 228 232 238 243 243 240 238 237 244 245 248 251 258
357 358 355 355 7 5 6 5 7 10 16 22 21 16 19 17 18 27 29 13 6 352 316 240 265 267 258 261 257 254 260 254 254 254 256 255 252 248 247 250 251 255 256
345 337 348 342 345 354 354 354 354 356 356 354 355 353 356 350 342 344 335 316 297 272 266 254 247 240 240 241 251 254 263 260 259 256 255 255 254 252 253 254 258 263 265
338 330 333 333 340 340 337 339 337 337 334 330 331 334 323 314 306 300 297 294 287 278 261 254 254 255 263 259 258 254 261 261 263 261 256 252 251 251 245 250 258 263 262
319 324 328 323 323 327 324 318 321 319 322 311 307 307 309 302 292 288 292 291 286 277 275 270 263 260 260 265 261 258 259 254 259 257 257 256 254 257 257 255 258 257 262
324 327 323 319 321 323 319 307 307 316 318 312 302 301 302 297 291 290 288 282 273 270 270 273 273 272 269 266 265 261 259 258 258 257 261 264 264 261 260 258 259 259 262
319 320 317 313 313 317 316 310 310 310 307 303 300 300 298 292 285 285 283 279 272 267 265 264 265 262 264 268 265 265 263 263 264 266 265 266 266 265 263 264 267 267 268
315 316 315 307 314 318 316 314 314 311 307 301 299 297 295 291 286 279 275 271 267 267 266 266 265 266 270 270 268 263 263 267 270 270 270 273 271 267 267 265 263 262 266
310 308 313 315 310 316 317 314 310 309 304 299 296 293 293 290 286 279 275 273 270 270 266 261 264 268 263 260 263 258 251 252 254 263 262 259 257 258 266 267 268 263 260
314 317 311 315 316 315 311 309 308 308 304 300 294 292 293 297 294 291 288 277 277 276 274 272 267 263 258 264 262 263 264 266 265 265 271 270 266 262 264 265 258 255 260